TimeCST,TemperatureF,Dew PointF,Humidity,Sea Level PressureIn,VisibilityMPH,Wind Direction,Wind SpeedMPH,Gust SpeedMPH,PrecipitationIn,Events,Conditions,WindDirDegrees,DateUTC
12:15 AM,33.8,28.4,81,29.62,10.0,NW,10.4,18.4,N/A,,Overcast,310,2014-01-25 06:15:00
12:35 AM,32.0,28.4,87,29.63,10.0,WNW,11.5,17.3,N/A,,Overcast,300,2014-01-25 06:35:00
12:55 AM,33.8,28.4,81,29.63,10.0,WNW,13.8,24.2,N/A,,Overcast,300,2014-01-25 06:55:00
1:15 AM,33.8,28.4,81,29.64,10.0,NW,19.6,-,N/A,,Overcast,310,2014-01-25 07:15:00
1:35 AM,30.2,26.6,86,29.66,4.0,NNW,29.9,36.8,N/A,Snow,Light Snow,330,2014-01-25 07:35:00
1:55 AM,30.2,24.8,80,29.67,10.0,NNW,20.7,32.2,N/A,,Overcast,330,2014-01-25 07:55:00
2:15 AM,30.2,24.8,80,29.68,10.0,NNW,20.7,28.8,N/A,,Overcast,330,2014-01-25 08:15:00
2:35 AM,28.4,23.0,80,29.70,10.0,NW,20.7,36.8,N/A,,Overcast,320,2014-01-25 08:35:00
2:55 AM,26.6,17.6,69,29.71,10.0,NNW,25.3,35.7,N/A,,Overcast,330,2014-01-25 08:55:00
3:15 AM,24.8,14.0,64,29.72,10.0,NNW,23.0,34.5,N/A,,Overcast,330,2014-01-25 09:15:00
3:35 AM,23.0,14.0,68,29.73,10.0,NNW,20.7,36.8,N/A,,Mostly Cloudy,330,2014-01-25 09:35:00
3:55 AM,23.0,12.2,63,29.75,10.0,NNW,23.0,36.8,N/A,,Overcast,330,2014-01-25 09:55:00
4:15 AM,21.2,12.2,68,29.75,10.0,NNW,25.3,35.7,N/A,,Overcast,330,2014-01-25 10:15:00
4:35 AM,19.4,10.4,68,29.77,10.0,NNW,25.3,31.1,N/A,,Mostly Cloudy,340,2014-01-25 10:35:00
4:55 AM,17.6,5.0,58,29.78,10.0,NNW,21.9,32.2,N/A,,Clear,340,2014-01-25 10:55:00
5:15 AM,15.8,6.8,68,29.79,10.0,NNW,17.3,29.9,N/A,,Clear,330,2014-01-25 11:15:00
5:35 AM,14.0,3.2,62,29.80,10.0,NW,24.2,33.4,N/A,,Clear,320,2014-01-25 11:35:00
5:55 AM,12.2,-2.2,53,29.82,10.0,NNW,23.0,35.7,N/A,,Clear,330,2014-01-25 11:55:00
6:15 AM,12.2,-0.4,57,29.83,10.0,NNW,25.3,33.4,N/A,,Clear,330,2014-01-25 12:15:00
6:35 AM,10.4,-2.2,57,29.84,10.0,NNW,19.6,34.5,N/A,,Clear,330,2014-01-25 12:35:00
6:55 AM,10.4,-2.2,57,29.85,10.0,NNW,26.5,33.4,N/A,,Clear,330,2014-01-25 12:55:00
7:15 AM,10.4,-4.0,52,29.86,10.0,NNW,26.5,39.1,N/A,,Clear,340,2014-01-25 13:15:00
7:35 AM,10.4,-5.8,48,29.87,10.0,NNW,21.9,36.8,N/A,,Clear,330,2014-01-25 13:35:00
7:55 AM,10.4,-4.0,52,29.89,10.0,NNW,23.0,35.7,N/A,,Clear,330,2014-01-25 13:55:00
8:15 AM,10.4,-7.6,44,29.89,10.0,NNW,27.6,36.8,N/A,,Clear,330,2014-01-25 14:15:00
8:35 AM,10.4,-5.8,48,29.90,10.0,NNW,24.2,32.2,N/A,,Clear,330,2014-01-25 14:35:00
8:55 AM,10.4,-7.6,44,29.91,10.0,NNW,28.8,41.4,N/A,,Clear,330,2014-01-25 14:55:00
9:15 AM,10.4,-7.6,44,29.91,10.0,NNW,32.2,41.4,N/A,,Clear,330,2014-01-25 15:15:00
9:35 AM,10.4,-7.6,44,29.91,10.0,NNW,28.8,42.6,N/A,,Clear,330,2014-01-25 15:35:00
9:55 AM,10.4,-5.8,48,29.92,10.0,NNW,28.8,41.4,N/A,,Clear,330,2014-01-25 15:55:00
10:15 AM,10.4,-7.6,44,29.93,10.0,NNW,24.2,41.4,N/A,,Clear,340,2014-01-25 16:15:00
10:35 AM,10.4,-5.8,48,29.94,10.0,NNW,25.3,36.8,N/A,,Clear,330,2014-01-25 16:35:00
10:55 AM,10.4,-5.8,48,29.95,10.0,NNW,23.0,28.8,N/A,,Clear,330,2014-01-25 16:55:00
11:15 AM,10.4,-7.6,44,29.96,10.0,NNW,23.0,34.5,N/A,,Clear,330,2014-01-25 17:15:00
11:35 AM,10.4,-7.6,44,29.96,10.0,NNW,24.2,32.2,N/A,,Clear,340,2014-01-25 17:35:00
11:55 AM,10.4,-7.6,44,29.95,10.0,NNW,20.7,31.1,N/A,,Clear,330,2014-01-25 17:55:00
12:15 PM,12.2,-7.6,41,29.94,10.0,NNW,21.9,28.8,N/A,,Clear,330,2014-01-25 18:15:00
12:35 PM,12.2,-7.6,41,29.93,10.0,NNW,18.4,29.9,N/A,,Clear,330,2014-01-25 18:35:00
12:55 PM,14.0,-5.8,41,29.93,10.0,NW,18.4,28.8,N/A,,Clear,320,2014-01-25 18:55:00
1:15 PM,14.0,-5.8,41,29.93,10.0,NW,18.4,26.5,N/A,,Clear,320,2014-01-25 19:15:00
1:35 PM,14.0,-5.8,41,29.92,10.0,NW,19.6,31.1,N/A,,Clear,320,2014-01-25 19:35:00
1:55 PM,15.8,-7.6,35,29.91,10.0,NW,18.4,28.8,N/A,,Clear,320,2014-01-25 19:55:00
2:15 PM,15.8,-7.6,35,29.91,10.0,NW,17.3,24.2,N/A,,Clear,320,2014-01-25 20:15:00
2:35 PM,15.8,-5.8,38,29.91,10.0,WNW,16.1,25.3,N/A,,Clear,300,2014-01-25 20:35:00
2:55 PM,15.8,-5.8,38,29.91,10.0,WNW,17.3,25.3,N/A,,Clear,300,2014-01-25 20:55:00
3:15 PM,17.6,-4.0,38,29.90,10.0,WNW,16.1,25.3,N/A,,Clear,300,2014-01-25 21:15:00
3:35 PM,17.6,-5.8,35,29.89,10.0,WNW,17.3,23.0,N/A,,Clear,300,2014-01-25 21:35:00
3:55 PM,15.8,-4.0,41,29.88,10.0,WNW,13.8,-,N/A,,Clear,290,2014-01-25 21:55:00
4:15 PM,17.6,-0.4,45,29.88,10.0,WNW,12.7,-,N/A,,Clear,300,2014-01-25 22:15:00
4:35 PM,17.6,-2.2,42,29.87,10.0,WNW,12.7,19.6,N/A,,Clear,290,2014-01-25 22:35:00
4:55 PM,17.6,-0.4,45,29.86,10.0,WNW,11.5,-,N/A,,Scattered Clouds,300,2014-01-25 22:55:00
5:15 PM,17.6,-0.4,45,29.85,10.0,WNW,12.7,-,N/A,,Mostly Cloudy,290,2014-01-25 23:15:00
5:35 PM,17.6,-0.4,45,29.84,10.0,WNW,9.2,-,N/A,,Mostly Cloudy,290,2014-01-25 23:35:00
5:55 PM,17.6,-0.4,45,29.83,10.0,West,6.9,-,N/A,,Overcast,280,2014-01-25 23:55:00
6:15 PM,17.6,1.4,49,29.82,10.0,West,5.8,-,N/A,,Overcast,260,2014-01-26 00:15:00
6:35 PM,17.6,1.4,49,29.79,10.0,SW,5.8,-,N/A,,Overcast,220,2014-01-26 00:35:00
6:55 PM,17.6,3.2,53,29.78,10.0,South,6.9,-,N/A,,Overcast,180,2014-01-26 00:55:00
7:15 PM,17.6,3.2,53,29.76,10.0,South,8.1,-,N/A,,Overcast,190,2014-01-26 01:15:00
7:35 PM,17.6,3.2,53,29.75,10.0,South,10.4,-,N/A,,Mostly Cloudy,180,2014-01-26 01:35:00
7:55 PM,17.6,5.0,58,29.72,10.0,South,10.4,-,N/A,,Overcast,180,2014-01-26 01:55:00
8:15 PM,17.6,3.2,53,29.68,10.0,SSE,9.2,-,N/A,,Overcast,160,2014-01-26 02:15:00
8:35 PM,17.6,5.0,58,29.65,7.0,SSE,10.4,-,N/A,,Overcast,150,2014-01-26 02:35:00
8:55 PM,17.6,8.6,68,29.64,1.8,SSE,12.7,-,N/A,Snow,Light Snow,160,2014-01-26 02:55:00
9:15 PM,17.6,10.4,73,29.61,1.2,SSE,15.0,-,N/A,Snow,Light Snow,150,2014-01-26 03:15:00
9:35 PM,15.8,12.2,86,29.58,0.8,SSE,13.8,-,N/A,Snow,Light Snow,150,2014-01-26 03:35:00
9:55 PM,17.6,14.0,86,29.54,1.5,SSE,17.3,-,N/A,Snow,Light Snow,150,2014-01-26 03:55:00
10:15 PM,17.6,14.0,86,29.50,1.8,SSE,17.3,25.3,N/A,Snow,Light Snow,150,2014-01-26 04:15:00
10:35 PM,17.6,14.0,86,29.47,10.0,SSE,19.6,-,N/A,,Overcast,150,2014-01-26 04:35:00
10:55 PM,17.6,14.0,86,29.46,10.0,SSE,18.4,27.6,N/A,,Overcast,150,2014-01-26 04:55:00
11:15 PM,19.4,14.0,80,29.44,10.0,SSE,15.0,27.6,N/A,,Overcast,150,2014-01-26 05:15:00
11:35 PM,19.4,12.2,74,29.42,10.0,SSE,19.6,26.5,N/A,,Overcast,160,2014-01-26 05:35:00
11:55 PM,19.4,12.2,74,29.39,10.0,SSE,19.6,28.8,N/A,,Overcast,160,2014-01-26 05:55:00